Regional Weather Roundup
Issued by NWS

Home | Current Version | Previous Version | Text Only | Print | Product List | Glossary On
Versions: 1 2 3 4 5 6 7 8 9 10 11 12 13 14 15 16 17 18 19 20 21 22 23 24 25 26 27 28 29 30 31 32 33 34 35 36 37 38 39 40 41 42 43 44 45 46 47 48 49 50
914
ASUS46 KSEW 220010
RWRWA

WASHINGTON REGIONAL WEATHER ROUNDUP
NATIONAL WEATHER SERVICE SEATTLE WA
500 PM PDT MON MAY 21 2018

NOTE:"FAIR" INDICATES FEW OR NO CLOUDS BELOW 12,000 FEET WITH NO
SIGNIFICANT WEATHER AND/OR OBSTRUCTIONS TO VISIBILITY.

WAZ507-509-555>559-220100-
SEATTLE, TACOMA, EVERETT, AND VICINITY

CITY           SKY/WX    TMP DP  RH WIND       PRES   REMARKS
EVERETT        SUNNY     65  50  58 NW7       30.04F
6HR MIN TEMP:  57; 6HR MAX TEMP:  65;

BOEING FIELD   MOSUNNY   69  45  41 NW10      30.02F
6HR MIN TEMP:  61; 6HR MAX TEMP:  70;

RENTON         PTSUNNY   71  49  45 NW9       30.01F
6HR MIN TEMP:  62; 6HR MAX TEMP:  71;

SEATAC AIRPORT MOSUNNY   70  47  43 N8        30.03F
6HR MIN TEMP:  57; 6HR MAX TEMP:  72;

JBLM-MCCHORD   SUNNY     69  53  54 NE12      30.02F
6HR MIN TEMP:  59; 6HR MAX TEMP:  70;

PUYALLUP       CLOUDY    68  54  60 CALM      30.03F
BREMERTON      MOSUNNY   67  50  54 VRB5      30.03F
6HR MIN TEMP:  59; 6HR MAX TEMP:  67;

JBLM-FT LEWIS  MOSUNNY   69  53  58 NW6G17    30.02F
6HR MIN TEMP:  58; 6HR MAX TEMP:  69;

TACOMA NARROWS PTSUNNY   66  48  52 N7        30.04F
6HR MIN TEMP:  58; 6HR MAX TEMP:  68;

$$

WAZ001-503-506-510-514-515-220100-
NORTH INTERIOR

CITY           SKY/WX    TMP DP  RH WIND       PRES   REMARKS
BELLINGHAM     SUNNY     68  49  50 VRB6      30.02F
6HR MIN TEMP:  57; 6HR MAX TEMP:  68;

FRIDAY HARBOR  SUNNY     65  50  58 S8        30.04F
6HR MIN TEMP:  56; 6HR MAX TEMP:  69;

EASTSOUND      SUNNY     64  50  59 CALM      30.02F
PORT ANGELES   SUNNY     59  49  69 NW7       30.05F
6HR MIN TEMP:  55; 6HR MAX TEMP:  65;

EDIZ HOOK      FAIR      55  48  75 W12G21    30.05F
6HR MIN TEMP:  54; 6HR MAX TEMP:  57;

PORT TOWNSEND  FAIR      66  48  52 VRB7      30.04F
NAS WHIDBEY    MOSUNNY   59  50  72 W8        30.08F
6HR MIN TEMP:  57; 6HR MAX TEMP:  62;

ARLINGTON      MOSUNNY   66  52  60 NW8       30.02F
6HR MIN TEMP:  59; 6HR MAX TEMP:  69;

BURLINGTON     SUNNY     66  52  59 NW9       30.03F
$$

WAZ020-022-039-040-504-511-512-220100-
SOUTHWEST INTERIOR

CITY           SKY/WX    TMP DP  RH WIND       PRES   REMARKS
SHELTON        CLOUDY    68  50  52 NE3       30.01F
6HR MIN TEMP:  58; 6HR MAX TEMP:  69;

OLYMPIA        PTSUNNY   69  49  48 VRB5      30.03F
6HR MIN TEMP:  59; 6HR MAX TEMP:  69;

CHEHALIS       CLOUDY    66  54  63 NE8       30.02F
KELSO          SUNNY     69  50  50 N13G20    29.99F
6HR MIN TEMP:  62; 6HR MAX TEMP:  71;

VANCOUVER      SUNNY     71  51  49 N8G16     29.96F
6HR MIN TEMP:  57; 6HR MAX TEMP:  72;

SCAPPOOSE, OR  SUNNY     70  50  49 N14       29.96F
6HR MIN TEMP:  59; 6HR MAX TEMP:  71;

PORTLAND, OR   MOSUNNY   72  49  44 N7        29.96F
6HR MIN TEMP:  57; 6HR MAX TEMP:  73;

$$

WAZ021-516-517-220100-
WASHINGTON COAST

CITY           SKY/WX    TMP DP  RH WIND       PRES   REMARKS
FORKS          SUNNY     60  47  61 NW10      30.05F
6HR MIN TEMP:  59; 6HR MAX TEMP:  64;

HOQUIAM        SUNNY     62  52  69 W14       30.04F
6HR MIN TEMP:  58; 6HR MAX TEMP:  62;

ASTORIA, OR    SUNNY     62  51  67 NW15G23   30.02F
6HR MIN TEMP:  58; 6HR MAX TEMP:  64;

$$

WAZ019-023-024-040-567>569-220100-
CASCADE MOUNTAINS AND COLUMBIA GORGE

CITY           SKY/WX    TMP DP  RH WIND       PRES   REMARKS
STAMPEDE PASS  NOT AVBL
TROUTDALE, OR  SUNNY     71  50  47 W6        29.95F
6HR MIN TEMP:  59; 6HR MAX TEMP:  72;

HOOD RIVER, OR CLEAR     73  43  33 W13G21    29.89F
THE DALLES, OR SUNNY     80  45  28 NW16      29.85F
6HR MIN TEMP:  70; 6HR MAX TEMP:  83;

$$

WAZ026-027-041>044-520-521-220100-
EAST SLOPES

CITY           SKY/WX    TMP DP  RH WIND       PRES   REMARKS
OMAK           SUNNY     81  45  28 VRB5      29.86F
6HR MIN TEMP:  74; 6HR MAX TEMP:  82;

WENATCHEE      SUNNY     80  46  30 E3        29.86F
6HR MIN TEMP:  68; 6HR MAX TEMP:  81;

ELLENSBURG     NOT AVBL
YAKIMA         SUNNY     83  45  26 E7        29.87F
6HR MIN TEMP:  71; 6HR MAX TEMP:  83;

SUNNYSIDE ARPT CLEAR     79  43  27 CALM      29.85F
6HR MIN TEMP:  68; 6HR MAX TEMP:  80;

YAKIMA TC      FAIR      81  41  24 W7        29.86F
6HR MIN TEMP:  71; 6HR MAX TEMP:  82;

$$

WAZ028-034-035-220100-
COLUMBIA BASIN

CITY           SKY/WX    TMP DP  RH WIND       PRES   REMARKS
EPHRATA        SUNNY     81  44  27 S8        29.87F
6HR MIN TEMP:  73; 6HR MAX TEMP:  82;

MOSES LAKE     SUNNY     81  44  27 VRB5      29.88F
PASCO          NOT AVBL
RICHLAND ARPT  CLEAR     85  50  29 E12       29.85F
6HR MIN TEMP:  75; 6HR MAX TEMP:  86;

HERMISTON, OR  SUNNY     83  49  30 VRB5      29.86F
6HR MIN TEMP:  73; 6HR MAX TEMP:  84;

$$

WAZ036>038-220100-
NORTHEAST WASHINGTON

CITY           SKY/WX    TMP DP  RH WIND       PRES   REMARKS
SPOKANE GEIGER MOSUNNY   76  48  37 W8G16     29.92F
6HR MIN TEMP:  68; 6HR MAX TEMP:  77;

SPOKANE FELTS  SUNNY     78  47  33 W6        29.90F
6HR MIN TEMP:  70; 6HR MAX TEMP:  80;

FAIRCHILD AFB  PTSUNNY   73  51  45 SW9       29.92F
6HR MIN TEMP:  68; 6HR MAX TEMP:  75;

COEURDALENE,ID MOSUNNY   74  50  42 S7        29.92S
6HR MIN TEMP:  69; 6HR MAX TEMP:  76; 6HR PCP: TRACE;

DEER PARK      SUNNY     77  47  34 W7        29.91S
6HR MIN TEMP:  68; 6HR MAX TEMP:  79;

$$

WAZ029>033-220100-
SOUTHEAST WASHINGTON

CITY           SKY/WX    TMP DP  RH WIND       PRES   REMARKS
PULLMAN        SUNNY     71  52  50 W6        29.95F
6HR MIN TEMP:  61; 6HR MAX TEMP:  71;

LEWISTON, ID   MOSUNNY   79  52  38 NW8       29.89F
6HR MIN TEMP:  70; 6HR MAX TEMP:  80;

WALLA WALLA    NOT AVBL
PENDLETON, OR  SUNNY     78  47  33 NE7       29.89F
6HR MIN TEMP:  65; 6HR MAX TEMP:  79;

$$




USA.gov is the U.S. government's official web portal to all federal, state and local government web resources and services.